DW0683 Weather Reports


Display with metric or nautical units.
time (UTC)temp
F
wind
direction
speed
MPH
gust
MPH
rain 1hr
in
rain 24hr
in
rain mn
in
humidity
%
barometer
mb
20260906013836 81 303 0.0 0.0 0.00 0.00 0.00 57 1013.0
20260906010832 82 303 0.0 0.0 0.00 0.00 0.00 58 1012.8
20260906003832 83 303 0.0 1.0 0.00 0.00 0.00 58 1012.9
20260906000830 85 303 0.0 2.0 0.00 0.00 0.00 57 1012.6
20260905233830 86 297 1.0 4.0 0.00 0.00 0.00 56 1012.5
20260905230828 87 288 1.0 6.0 0.00 0.00 0.00 54 1012.8
20260905223828 88 9 3.0 10.0 0.00 0.00 0.00 54 1012.6
20260905220847 89 339 1.0 9.0 0.00 0.00 0.00 54 1012.4
20260905213826 89 333 4.0 10.0 0.00 0.00 0.00 53 1012.3
20260905210825 89 309 5.0 9.0 0.00 0.00 0.00 53 1012.6
20260905203825 90 329 4.0 11.0 0.00 0.00 0.00 51 1012.4
20260905200824 91 249 3.0 13.0 0.00 0.00 0.00 50 1012.6
20260905193819 91 281 2.0 10.0 0.00 0.00 0.00 52 1012.9
20260905190837 91 314 3.0 9.0 0.00 0.00 0.00 50 1013.3
20260905183816 91 256 4.0 10.0 0.00 0.00 0.00 53 1013.3
20260905180814 91 219 5.0 12.0 0.00 0.00 0.00 52 1013.5
20260905173833 91 321 5.0 10.0 0.00 0.00 0.00 51 1013.7
20260905170851 92 296 3.0 9.0 0.00 0.00 0.00 49 1014.4
20260905163829 92 238 4.0 9.0 0.00 0.00 0.00 46 1014.7
20260905160826 92 307 4.0 9.0 0.00 0.00 0.00 48 1014.7
20260905153845 90 233 5.0 7.0 0.00 0.00 0.00 38 1015.0
20260905150823 90 161 3.0 8.0 0.00 0.00 0.00 36 1014.8
20260905143823 90 232 2.0 8.0 0.00 0.00 0.00 36 1014.6
20260905140821 90 192 1.0 4.0 0.00 0.05 0.00 38 1014.7
20260905133841 88 215 1.0 4.0 0.00 0.05 0.00 41 1014.8
20260905130821 85 236 1.0 3.0 0.00 0.05 0.00 46 1014.8